Location: Vesunti
(61.5000°N, 22.8333°E)
Time: 11:58:42
(UTC+00:00)

Cosmos 1241 Rocket - Pass Details

Date: 17 February 2020
Orbit: 942 x 1006 km, 65.8° (Epoch: 08 April)

Event Time Altitude Azimuth Distance (km) Brightness Sun altitude
Exits shadow 04:37:40 12° 253° (WSW) 2,508 6.1 -11.3°
Maximum altitude 04:43:27 72° 338° (NNW) 993 4.5 -10.6°
Drops below altitude 10° 04:49:41 10° 63° (ENE) 2,673 7.7 -9.9°
Sets 04:52:15 0° 66° (ENE) 3,623 8.6 -9.6°
